Time,TemperatureF,DewpointF,PressureIn,WindDirection,WindDirectionDegrees,WindSpeedMPH,WindSpeedGustMPH,Humidity,HourlyPrecipIn,Conditions,Clouds,dailyrainin,SoftwareType,DateUTC
2013-10-12 00:02:00,47.8,43.2,30.16,NW,315,2.2,-999.0,84,-99.99,,,0.00,Acu-Link.com,2013-10-12 04:02:00,
2013-10-12 00:17:00,47.5,42.3,30.17,West,270,0.0,-999.0,82,-99.99,,,0.00,Acu-Link.com,2013-10-12 04:17:00,
2013-10-12 00:32:00,46.6,41.7,30.17,West,270,2.2,-999.0,83,-99.99,,,0.00,Acu-Link.com,2013-10-12 04:32:00,
2013-10-12 00:48:00,46.0,41.1,30.17,North,0,1.7,-999.0,83,-99.99,,,0.00,Acu-Link.com,2013-10-12 04:48:00,
2013-10-12 01:03:00,46.0,41.7,30.17,ESE,112,3.7,-999.0,85,-99.99,,,0.00,Acu-Link.com,2013-10-12 05:03:00,
2013-10-12 01:19:00,46.2,41.9,30.16,NNW,337,0.0,-999.0,85,-99.99,,,0.00,Acu-Link.com,2013-10-12 05:19:00,
2013-10-12 01:34:00,45.9,41.6,30.17,NE,45,0.0,-999.0,85,-99.99,,,0.00,Acu-Link.com,2013-10-12 05:34:00,
2013-10-12 01:51:00,46.6,42.9,30.17,NE,45,2.7,-999.0,87,-99.99,,,0.00,Acu-Link.com,2013-10-12 05:51:00,
2013-10-12 02:06:00,46.6,42.6,30.17,NNE,22,3.2,-999.0,86,-99.99,,,0.00,Acu-Link.com,2013-10-12 06:06:00,
2013-10-12 02:21:00,46.8,43.1,30.18,NE,45,1.7,-999.0,87,-99.99,,,0.00,Acu-Link.com,2013-10-12 06:21:00,
2013-10-12 02:36:00,46.2,42.2,30.17,NNW,337,1.1,-999.0,86,-99.99,,,0.00,Acu-Link.com,2013-10-12 06:36:00,
2013-10-12 02:51:00,46.2,42.5,30.18,North,0,1.7,-999.0,87,-99.99,,,0.00,Acu-Link.com,2013-10-12 06:51:00,
2013-10-12 03:08:00,45.9,42.0,30.18,North,0,2.7,-999.0,86,-99.99,,,0.00,Acu-Link.com,2013-10-12 07:08:00,
2013-10-12 03:23:00,46.4,43.3,30.18,NNE,22,0.0,-999.0,89,-99.99,,,0.00,Acu-Link.com,2013-10-12 07:23:00,
2013-10-12 03:42:00,46.2,43.1,30.19,West,270,0.0,-999.0,89,-99.99,,,0.00,Acu-Link.com,2013-10-12 07:42:00,
2013-10-12 03:57:00,46.0,42.9,30.18,NE,45,0.0,-999.0,89,-99.99,,,0.00,Acu-Link.com,2013-10-12 07:57:00,
2013-10-12 04:13:00,46.2,43.1,30.19,NNE,22,1.7,-999.0,89,-99.99,,,0.00,Acu-Link.com,2013-10-12 08:13:00,
2013-10-12 04:28:00,46.0,42.9,30.19,NNE,22,0.0,-999.0,89,-99.99,,,0.00,Acu-Link.com,2013-10-12 08:28:00,
2013-10-12 04:44:00,45.7,42.9,30.19,ENE,67,0.0,-999.0,90,-99.99,,,0.00,Acu-Link.com,2013-10-12 08:44:00,
2013-10-12 04:59:00,45.9,43.4,30.20,SSE,157,2.7,-999.0,91,-99.99,,,0.00,Acu-Link.com,2013-10-12 08:59:00,
2013-10-12 05:14:00,46.2,44.6,30.20,NE,45,2.2,-999.0,94,-99.99,,,0.00,Acu-Link.com,2013-10-12 09:14:00,
2013-10-12 05:29:00,45.9,44.3,30.21,NW,315,1.1,-999.0,94,-99.99,,,0.00,Acu-Link.com,2013-10-12 09:29:00,
2013-10-12 05:44:00,46.8,46.0,30.20,NW,315,2.2,-999.0,97,-99.99,,,0.00,Acu-Link.com,2013-10-12 09:44:00,
2013-10-12 05:59:00,47.1,46.3,30.22,East,90,2.7,-999.0,97,-99.99,,,0.00,Acu-Link.com,2013-10-12 09:59:00,
2013-10-12 06:14:00,48.2,46.8,30.23,West,270,2.2,-999.0,95,-99.99,,,0.00,Acu-Link.com,2013-10-12 10:14:00,
2013-10-12 06:29:00,48.0,47.2,30.24,ESE,112,1.7,-999.0,97,-99.99,,,0.00,Acu-Link.com,2013-10-12 10:29:00,
2013-10-12 06:45:00,48.0,46.6,30.25,WNW,292,1.1,-999.0,95,-99.99,,,0.00,Acu-Link.com,2013-10-12 10:45:00,
2013-10-12 07:00:00,48.0,47.2,30.24,West,270,0.0,-999.0,97,-99.99,,,0.00,Acu-Link.com,2013-10-12 11:00:00,
2013-10-12 07:15:00,47.3,46.2,30.25,North,0,1.7,-999.0,96,-99.99,,,0.00,Acu-Link.com,2013-10-12 11:15:00,
2013-10-12 07:30:00,48.2,47.4,30.27,East,90,1.7,-999.0,97,-99.99,,,0.00,Acu-Link.com,2013-10-12 11:30:00,
2013-10-12 07:45:00,50.4,49.0,30.27,East,90,0.0,-999.0,95,-99.99,,,0.00,Acu-Link.com,2013-10-12 11:45:00,
2013-10-12 08:01:00,51.8,49.6,30.28,ESE,112,2.7,-999.0,92,-99.99,,,0.00,Acu-Link.com,2013-10-12 12:01:00,
2013-10-12 08:16:00,52.0,49.7,30.28,ENE,67,3.2,-999.0,92,-99.99,,,0.00,Acu-Link.com,2013-10-12 12:16:00,
2013-10-12 08:31:00,52.2,49.9,30.28,East,90,3.7,-999.0,92,-99.99,,,0.00,Acu-Link.com,2013-10-12 12:31:00,
2013-10-12 08:46:00,53.1,50.2,30.29,ESE,112,2.7,-999.0,90,-99.99,,,0.00,Acu-Link.com,2013-10-12 12:46:00,
2013-10-12 09:01:00,54.0,50.8,30.28,ESE,112,4.7,-999.0,89,-99.99,,,0.00,Acu-Link.com,2013-10-12 13:01:00,
2013-10-12 09:16:00,54.9,51.1,30.29,ESE,112,2.7,-999.0,87,-99.99,,,0.00,Acu-Link.com,2013-10-12 13:16:00,
2013-10-12 09:32:00,55.4,51.0,30.28,SSE,157,4.2,-999.0,85,-99.99,,,0.00,Acu-Link.com,2013-10-12 13:32:00,
2013-10-12 09:47:00,56.7,51.6,30.29,West,270,1.1,-999.0,83,-99.99,,,0.00,Acu-Link.com,2013-10-12 13:47:00,
2013-10-12 10:02:00,57.0,51.6,30.28,SSE,157,1.7,-999.0,82,-99.99,,,0.00,Acu-Link.com,2013-10-12 14:02:00,
2013-10-12 10:17:00,59.5,51.6,30.28,SW,225,0.0,-999.0,75,-99.99,,,0.00,Acu-Link.com,2013-10-12 14:17:00,
2013-10-12 10:32:00,61.9,52.0,30.29,SSE,157,2.2,-999.0,70,-99.99,,,0.00,Acu-Link.com,2013-10-12 14:32:00,
2013-10-12 10:48:00,60.8,51.3,30.29,ENE,67,2.2,-999.0,71,-99.99,,,0.00,Acu-Link.com,2013-10-12 14:48:00,
2013-10-12 11:03:00,61.3,51.4,30.29,East,90,2.2,-999.0,70,-99.99,,,0.00,Acu-Link.com,2013-10-12 15:03:00,
2013-10-12 11:18:00,61.7,51.4,30.28,South,180,4.7,-999.0,69,-99.99,,,0.00,Acu-Link.com,2013-10-12 15:18:00,
2013-10-12 11:34:00,62.4,51.7,30.27,ESE,112,6.3,-999.0,68,-99.99,,,0.00,Acu-Link.com,2013-10-12 15:34:00,
2013-10-12 11:49:00,63.5,51.9,30.27,ESE,112,3.2,-999.0,66,-99.99,,,0.00,Acu-Link.com,2013-10-12 15:49:00,
2013-10-12 12:04:00,64.9,52.0,30.27,ESE,112,2.2,-999.0,63,-99.99,,,0.00,Acu-Link.com,2013-10-12 16:04:00,
2013-10-12 12:24:00,62.2,51.1,30.26,SSE,157,3.2,-999.0,67,-99.99,,,0.00,Acu-Link.com,2013-10-12 16:24:00,
2013-10-12 12:39:00,63.0,51.5,30.26,SSE,157,4.7,-999.0,66,-99.99,,,0.00,Acu-Link.com,2013-10-12 16:39:00,
2013-10-12 12:54:00,63.1,51.1,30.26,SE,135,2.2,-999.0,65,-99.99,,,0.00,Acu-Link.com,2013-10-12 16:54:00,
2013-10-12 13:09:00,63.5,51.9,30.25,SSE,157,2.7,-999.0,66,-99.99,,,0.00,Acu-Link.com,2013-10-12 17:09:00,
2013-10-12 13:24:00,63.1,51.1,30.25,ESE,112,4.7,-999.0,65,-99.99,,,0.00,Acu-Link.com,2013-10-12 17:24:00,
2013-10-12 13:40:00,63.1,51.1,30.25,ESE,112,3.2,-999.0,65,-99.99,,,0.00,Acu-Link.com,2013-10-12 17:40:00,
2013-10-12 13:55:00,63.0,51.0,30.24,SSE,157,7.3,-999.0,65,-99.99,,,0.00,Acu-Link.com,2013-10-12 17:55:00,
2013-10-12 14:11:00,62.8,51.7,30.24,SW,225,3.2,-999.0,67,-99.99,,,0.00,Acu-Link.com,2013-10-12 18:11:00,
2013-10-12 14:26:00,63.3,51.7,30.23,SW,225,1.1,-999.0,66,-99.99,,,0.00,Acu-Link.com,2013-10-12 18:26:00,
2013-10-12 14:41:00,64.4,52.0,30.24,ENE,67,3.2,-999.0,64,-99.99,,,0.00,Acu-Link.com,2013-10-12 18:41:00,
2013-10-12 14:57:00,64.2,52.2,30.23,SE,135,1.7,-999.0,65,-99.99,,,0.00,Acu-Link.com,2013-10-12 18:57:00,
2013-10-12 15:12:00,64.2,51.3,30.23,SE,135,2.7,-999.0,63,-99.99,,,0.00,Acu-Link.com,2013-10-12 19:12:00,
2013-10-12 15:27:00,65.3,51.5,30.24,SE,135,1.7,-999.0,61,-99.99,,,0.00,Acu-Link.com,2013-10-12 19:27:00,
2013-10-12 15:42:00,64.8,51.5,30.24,SSE,157,1.7,-999.0,62,-99.99,,,0.00,Acu-Link.com,2013-10-12 19:42:00,
2013-10-12 15:57:00,65.7,51.9,30.24,SSE,157,1.1,-999.0,61,-99.99,,,0.00,Acu-Link.com,2013-10-12 19:57:00,
2013-10-12 16:13:00,67.3,52.9,30.23,SSE,157,1.7,-999.0,60,-99.99,,,0.00,Acu-Link.com,2013-10-12 20:13:00,
2013-10-12 16:28:00,65.5,52.6,30.24,ESE,112,2.7,-999.0,63,-99.99,,,0.00,Acu-Link.com,2013-10-12 20:28:00,
2013-10-12 16:43:00,64.4,52.0,30.24,ESE,112,1.7,-999.0,64,-99.99,,,0.00,Acu-Link.com,2013-10-12 20:43:00,
2013-10-12 16:59:00,63.3,50.9,30.24,SE,135,6.3,-999.0,64,-99.99,,,0.00,Acu-Link.com,2013-10-12 20:59:00,
2013-10-12 17:14:00,61.5,50.8,30.24,ENE,67,3.7,-999.0,68,-99.99,,,0.00,Acu-Link.com,2013-10-12 21:14:00,
2013-10-12 17:29:00,59.2,49.8,30.24,SE,135,3.2,-999.0,71,-99.99,,,0.00,Acu-Link.com,2013-10-12 21:29:00,
2013-10-12 17:44:00,57.6,49.0,30.23,ESE,112,7.3,-999.0,73,-99.99,,,0.00,Acu-Link.com,2013-10-12 21:44:00,
2013-10-12 17:59:00,56.3,48.5,30.25,SE,135,4.2,-999.0,75,-99.99,,,0.00,Acu-Link.com,2013-10-12 21:59:00,
2013-10-12 18:15:00,55.2,47.8,30.25,SE,135,4.7,-999.0,76,-99.99,,,0.00,Acu-Link.com,2013-10-12 22:15:00,
2013-10-12 18:30:00,54.3,47.2,30.26,NNW,337,4.7,-999.0,77,-99.99,,,0.00,Acu-Link.com,2013-10-12 22:30:00,
2013-10-12 18:45:00,53.4,47.1,30.26,SE,135,3.7,-999.0,79,-99.99,,,0.00,Acu-Link.com,2013-10-12 22:45:00,
2013-10-12 19:00:00,52.7,46.7,30.27,South,180,6.3,-999.0,80,-99.99,,,0.00,Acu-Link.com,2013-10-12 23:00:00,
2013-10-12 19:15:00,52.2,46.5,30.28,ESE,112,7.8,-999.0,81,-99.99,,,0.00,Acu-Link.com,2013-10-12 23:15:00,
2013-10-12 19:31:00,51.8,46.2,30.27,ESE,112,3.7,-999.0,81,-99.99,,,0.00,Acu-Link.com,2013-10-12 23:31:00,
2013-10-12 19:46:00,51.8,46.5,30.28,ESE,112,4.7,-999.0,82,-99.99,,,0.00,Acu-Link.com,2013-10-12 23:46:00,
2013-10-12 20:01:00,51.8,46.5,30.28,ESE,112,4.2,-999.0,82,-99.99,,,0.00,Acu-Link.com,2013-10-13 00:01:00,
2013-10-12 20:16:00,51.6,46.3,30.28,SSE,157,4.7,-999.0,82,-99.99,,,0.00,Acu-Link.com,2013-10-13 00:16:00,
2013-10-12 20:31:00,51.3,46.0,30.30,SE,135,5.3,-999.0,82,-99.99,,,0.00,Acu-Link.com,2013-10-13 00:31:00,
2013-10-12 20:47:00,50.9,45.9,30.29,ESE,112,4.7,-999.0,83,-99.99,,,0.00,Acu-Link.com,2013-10-13 00:47:00,
2013-10-12 21:02:00,50.7,45.7,30.29,SE,135,4.2,-999.0,83,-99.99,,,0.00,Acu-Link.com,2013-10-13 01:02:00,
2013-10-12 21:21:00,50.4,45.4,30.30,ESE,112,5.3,-999.0,83,-99.99,,,0.00,Acu-Link.com,2013-10-13 01:21:00,
2013-10-12 21:36:00,50.4,45.4,30.30,ESE,112,5.8,-999.0,83,-99.99,,,0.00,Acu-Link.com,2013-10-13 01:36:00,
2013-10-12 21:51:00,50.0,45.4,30.30,ESE,112,5.3,-999.0,84,-99.99,,,0.00,Acu-Link.com,2013-10-13 01:51:00,
2013-10-12 22:07:00,49.8,45.5,30.31,ESE,112,5.8,-999.0,85,-99.99,,,0.00,Acu-Link.com,2013-10-13 02:07:00,
2013-10-12 22:22:00,49.6,45.3,30.32,ESE,112,2.2,-999.0,85,-99.99,,,0.00,Acu-Link.com,2013-10-13 02:22:00,
2013-10-12 22:37:00,49.5,45.5,30.32,SE,135,4.7,-999.0,86,-99.99,,,0.00,Acu-Link.com,2013-10-13 02:37:00,
2013-10-12 22:52:00,49.6,45.6,30.31,SE,135,3.7,-999.0,86,-99.99,,,0.00,Acu-Link.com,2013-10-13 02:52:00,
2013-10-12 23:08:00,50.0,46.0,30.32,ESE,112,3.2,-999.0,86,-99.99,,,0.00,Acu-Link.com,2013-10-13 03:08:00,
2013-10-12 23:23:00,50.0,46.0,30.32,SE,135,3.7,-999.0,86,-99.99,,,0.00,Acu-Link.com,2013-10-13 03:23:00,
2013-10-12 23:38:00,50.0,46.0,30.32,SE,135,4.2,-999.0,86,-99.99,,,0.00,Acu-Link.com,2013-10-13 03:38:00,
2013-10-12 23:53:00,50.0,46.0,30.32,East,90,2.7,-999.0,86,-99.99,,,0.00,Acu-Link.com,2013-10-13 03:53:00,